TimePDT,TemperatureF,Dew PointF,Humidity,Sea Level PressureIn,VisibilityMPH,Wind Direction,Wind SpeedMPH,Gust SpeedMPH,PrecipitationIn,Events,Conditions,WindDirDegrees,DateUTC
12:53 AM,62.1,61.0,96,29.93,10.0,Calm,Calm,-,N/A,,Overcast,0,2013-08-27 07:53:00
1:32 AM,60.8,60.8,100,29.92,10.0,SSW,4.6,-,N/A,,Partly Cloudy,210,2013-08-27 08:32:00
1:53 AM,61.0,61.0,100,29.91,10.0,SW,3.5,-,N/A,,Partly Cloudy,220,2013-08-27 08:53:00
2:36 AM,60.8,60.8,100,29.90,10.0,SSW,5.8,-,N/A,,Partly Cloudy,210,2013-08-27 09:36:00
2:53 AM,61.0,61.0,100,29.90,10.0,SSW,4.6,-,N/A,,Partly Cloudy,210,2013-08-27 09:53:00
3:53 AM,60.1,60.1,100,29.89,10.0,South,4.6,-,N/A,,Partly Cloudy,190,2013-08-27 10:53:00
4:53 AM,61.0,61.0,100,29.89,10.0,SW,8.1,-,N/A,,Partly Cloudy,230,2013-08-27 11:53:00
5:53 AM,61.0,61.0,100,29.89,10.0,SW,6.9,-,N/A,,Partly Cloudy,220,2013-08-27 12:53:00
6:42 AM,60.8,60.8,100,29.90,10.0,NW,4.6,-,N/A,,Mostly Cloudy,320,2013-08-27 13:42:00
6:53 AM,60.1,60.1,100,29.90,10.0,Calm,Calm,-,N/A,,Overcast,0,2013-08-27 13:53:00
7:53 AM,61.0,61.0,100,29.91,10.0,NW,3.5,-,N/A,,Overcast,320,2013-08-27 14:53:00
8:53 AM,62.1,61.0,96,29.90,10.0,Calm,Calm,-,N/A,,Scattered Clouds,0,2013-08-27 15:53:00
9:53 AM,63.0,61.0,93,29.91,10.0,West,6.9,-,N/A,,Partly Cloudy,270,2013-08-27 16:53:00
10:53 AM,64.9,60.1,84,29.91,10.0,West,6.9,-,N/A,,Clear,280,2013-08-27 17:53:00
11:53 AM,66.9,59.0,76,29.90,10.0,West,10.4,-,N/A,,Partly Cloudy,280,2013-08-27 18:53:00
12:53 PM,70.0,57.9,65,29.89,10.0,West,12.7,27.6,N/A,,Partly Cloudy,270,2013-08-27 19:53:00
1:53 PM,71.1,61.0,70,29.88,10.0,West,16.1,-,N/A,,Partly Cloudy,280,2013-08-27 20:53:00
2:53 PM,71.1,62.1,73,29.86,10.0,West,16.1,-,N/A,,Partly Cloudy,280,2013-08-27 21:53:00
3:53 PM,71.1,63.0,75,29.86,10.0,West,18.4,-,N/A,,Partly Cloudy,280,2013-08-27 22:53:00
4:53 PM,71.1,63.0,75,29.85,10.0,West,16.1,-,N/A,,Partly Cloudy,270,2013-08-27 23:53:00
5:53 PM,66.9,64.0,90,29.85,10.0,WNW,16.1,23.0,N/A,,Partly Cloudy,300,2013-08-28 00:53:00
6:53 PM,64.9,63.0,93,29.84,10.0,North,-9999.0,-,N/A,,Partly Cloudy,0,2013-08-28 01:53:00
7:53 PM,64.9,64.0,97,29.85,10.0,WNW,8.1,-,N/A,,Partly Cloudy,300,2013-08-28 02:53:00
8:53 PM,64.0,64.0,100,29.86,10.0,West,6.9,-,N/A,,Partly Cloudy,260,2013-08-28 03:53:00
9:53 PM,62.1,62.1,100,29.88,10.0,West,10.4,-,N/A,,Partly Cloudy,270,2013-08-28 04:53:00
10:49 PM,60.8,60.8,100,29.89,10.0,West,11.5,-,N/A,,Mostly Cloudy,280,2013-08-28 05:49:00
10:53 PM,61.0,61.0,100,29.89,10.0,West,9.2,-,N/A,,Mostly Cloudy,270,2013-08-28 05:53:00
11:53 PM,61.0,61.0,100,29.89,10.0,West,9.2,-,N/A,,Overcast,280,2013-08-28 06:53:00